Weather History for Warroad, MN

Change the Weather History Date:

Friday, August 30, 2013

  Actual Average Record
Temperature  
Mean Temperature 70 °F -  
Max Temperature 80 °F 74 °F 92 °F (1961)
Min Temperature 59 °F 51 °F 34 °F (1978)
Cooling Degree Days 4    
Growing Degree Days 20 (Base 50)    
Moisture  
Dew Point 64 °F    
Average Humidity 83    
Maximum Humidity 94    
Minimum Humidity 61    
Precipitation  
Precipitation 0.00 in - - ()
Sea Level Pressure  
Sea Level Pressure 29.95 in    
Wind  
Wind Speed 3 mph (East)    
Max Wind Speed 8 mph    
Max Gust Speed -    
Visibility 7 miles    
Events Fog    
Averages and records for this station are not official NWS values.
T = Trace of Precipitation, MM = Missing Value Source: NWS Daily Summary

Daily Weather History Graph

Daily Weather History Graph

Search for Another Location

Airport:

Trip Planner

Search our weather history database for the weather conditions in past years. The results will help you decide how hot, cold, wet, or windy it might be!

Date:

Astronomy

Aug. 30, 2013 Rise Set
Actual Time 6:35 AM CDT 8:07 PM CDT
Civil Twilight 6:02 AM CDT 8:40 PM CDT
Nautical Twilight 5:22 AM CDT 9:20 PM CDT
Astronomical Twilight 4:38 AM CDT 10:03 PM CDT
Moon 12:59 AM CDT (8/30) 4:38 PM CDT (8/30)
Length of Visible Light 14h 37m
Length of Day
13h 31m
Waning Crescent, 29% of the Moon is Illuminated
Aug 30
Waning Crescent
Sep 5
New
Sep 12
First Quarter
Sep 19
Full
Sep 26
Last Quarter

Hourly Weather History & Observations

Time (CDT) Temp. Heat Index Dew Point Humidity Pressure Visibility Wind Dir Wind Speed Gust Speed Precip Events Conditions
12:14 AM 66.2 °F - 62.6 °F 88% 29.95 in 3.0 mi Calm Calm - N/A   Clear
12:34 AM 64.4 °F - 60.8 °F 88% 29.94 in 1.5 mi North 4.6 mph - N/A   Mostly Cloudy
12:54 AM 66.2 °F - 62.6 °F 88% 29.94 in 4.0 mi Calm Calm - N/A   Scattered Clouds
1:13 AM 64.4 °F - 60.8 °F 88% 29.94 in 0.5 mi NNW 4.6 mph - N/A Fog Fog
1:34 AM 64.4 °F - 60.8 °F 88% 29.94 in 0.2 mi NNW 3.5 mph - N/A Fog Fog
1:54 AM 62.6 °F - 60.8 °F 94% 29.95 in 0.5 mi Calm Calm - N/A Fog Fog
2:13 AM 64.4 °F - 60.8 °F 88% 29.96 in 0.2 mi NW 3.5 mph - N/A Fog Fog
2:34 AM 62.6 °F - 59.0 °F 88% 29.96 in 0.5 mi Calm Calm - N/A Fog Fog
2:54 AM 64.4 °F - 60.8 °F 88% 29.97 in 0.5 mi WNW 4.6 mph - N/A Fog Fog
3:14 AM 62.6 °F - 59.0 °F 88% 29.97 in 0.2 mi WNW 4.6 mph - N/A Fog Fog
3:33 AM 62.6 °F - 59.0 °F 88% 29.97 in 0.8 mi West 3.5 mph - N/A   Overcast
3:54 AM 62.6 °F - 57.2 °F 82% 29.98 in 1.8 mi West 3.5 mph - N/A   Overcast
4:14 AM 60.8 °F - 57.2 °F 88% 29.98 in 0.5 mi Calm Calm - N/A Fog Fog
4:33 AM 60.8 °F - 57.2 °F 88% 29.99 in 0.2 mi WNW 4.6 mph - N/A Fog Fog
4:54 AM 60.8 °F - 57.2 °F 88% 29.99 in 0.5 mi WNW 3.5 mph - N/A Fog Fog
5:14 AM 60.8 °F - 57.2 °F 88% 29.99 in 5.0 mi Calm Calm - N/A   Mostly Cloudy
5:33 AM 60.8 °F - 57.2 °F 88% 29.99 in 4.0 mi WNW 3.5 mph - N/A   Scattered Clouds
5:54 AM 60.8 °F - 55.4 °F 82% 29.99 in 1.0 mi NW 4.6 mph - N/A   Overcast
6:14 AM 60.8 °F - 55.4 °F 82% 29.99 in 0.2 mi Calm Calm - N/A Fog Fog
6:33 AM 59.0 °F - 55.4 °F 88% 29.99 in 0.8 mi Calm Calm - N/A   Overcast
6:54 AM 59.0 °F - 55.4 °F 88% 30.00 in 0.8 mi Calm Calm - N/A   Overcast
7:14 AM 59.0 °F - 55.4 °F 88% 30.00 in 0.5 mi Calm Calm - N/A Fog Fog
7:34 AM 60.8 °F - 57.2 °F 88% 30.01 in 2.5 mi Calm Calm - N/A   Mostly Cloudy
7:54 AM 60.8 °F - 57.2 °F 88% 30.01 in 7.0 mi Calm Calm - N/A   Scattered Clouds
8:14 AM 62.6 °F - 57.2 °F 82% 30.02 in 7.0 mi Calm Calm - N/A   Clear
8:34 AM 64.4 °F - 60.8 °F 88% 30.02 in 10.0 mi Calm Calm - N/A   Clear
8:54 AM 66.2 °F - 62.6 °F 88% 30.02 in 10.0 mi Calm Calm - N/A   Clear
9:14 AM 66.2 °F - 62.6 °F 88% 30.02 in 10.0 mi NE 3.5 mph - N/A   Clear
9:34 AM 68.0 °F - 64.4 °F 88% 30.02 in 10.0 mi ENE 3.5 mph - N/A   Clear
9:54 AM 69.8 °F - 66.2 °F 88% 30.03 in 10.0 mi East 4.6 mph - N/A   Scattered Clouds
10:14 AM 71.6 °F - 66.2 °F 83% 30.02 in 10.0 mi East 6.9 mph - N/A   Mostly Cloudy
10:34 AM 71.6 °F - 66.2 °F 83% 30.02 in 10.0 mi East 6.9 mph - N/A   Scattered Clouds
10:54 AM 71.6 °F - 66.2 °F 83% 30.02 in 10.0 mi NE 4.6 mph - N/A   Scattered Clouds
11:14 AM 73.4 °F - 68.0 °F 83% 30.02 in 10.0 mi Calm Calm - N/A   Scattered Clouds
11:34 AM 73.4 °F - 66.2 °F 78% 30.01 in 10.0 mi ENE 4.6 mph - N/A   Clear
11:54 AM 73.4 °F - 66.2 °F 78% 30.01 in 10.0 mi ENE 4.6 mph - N/A   Clear
12:14 PM 73.4 °F - 66.2 °F 78% 30.01 in 10.0 mi ENE 5.8 mph - N/A   Clear
12:34 PM 73.4 °F - 68.0 °F 83% 30.00 in 10.0 mi NE 4.6 mph - N/A   Clear
12:54 PM 73.4 °F - 68.0 °F 83% 30.00 in 10.0 mi NE 4.6 mph - N/A   Clear
1:14 PM 75.2 °F - 68.0 °F 78% 30.00 in 10.0 mi Calm Calm - N/A   Clear
1:34 PM 75.2 °F - 68.0 °F 78% 29.99 in 10.0 mi ENE 5.8 mph - N/A   Clear
1:54 PM 75.2 °F - 68.0 °F 78% 29.99 in 10.0 mi ENE 5.8 mph - N/A   Clear
2:14 PM 75.2 °F - 68.0 °F 78% 29.99 in 10.0 mi ENE 4.6 mph - N/A   Clear
2:34 PM 75.2 °F - 68.0 °F 78% 29.98 in 10.0 mi ENE 5.8 mph - N/A   Clear
2:54 PM 75.2 °F - 69.8 °F 83% 29.96 in 10.0 mi NE 5.8 mph - N/A   Clear
3:14 PM 75.2 °F - 69.8 °F 83% 29.96 in 10.0 mi ENE 5.8 mph - N/A   Clear
3:34 PM 77.0 °F - 69.8 °F 78% 29.95 in 10.0 mi ENE 5.8 mph - N/A   Clear
3:54 PM 77.0 °F - 69.8 °F 78% 29.95 in 10.0 mi ENE 4.6 mph - N/A   Clear
4:14 PM 78.8 °F - 69.8 °F 74% 29.94 in 10.0 mi ENE 5.8 mph - N/A   Clear
4:34 PM 78.8 °F - 69.8 °F 74% 29.93 in 10.0 mi ENE 4.6 mph - N/A   Clear
4:54 PM 78.8 °F - 69.8 °F 74% 29.93 in 10.0 mi East 3.5 mph - N/A   Clear
5:13 PM 77.0 °F - 69.8 °F 78% 29.91 in 10.0 mi ENE 5.8 mph - N/A   Clear
5:34 PM 78.8 °F - 69.8 °F 74% 29.91 in 10.0 mi East 5.8 mph - N/A   Clear
5:54 PM 78.8 °F - 71.6 °F 78% 29.91 in 10.0 mi East 4.6 mph - N/A   Clear
6:14 PM 80.6 °F 84.6 °F 71.6 °F 74% 29.90 in 10.0 mi SE 4.6 mph - N/A   Clear
6:34 PM 80.6 °F 83.2 °F 68.0 °F 65% 29.90 in 10.0 mi South 4.6 mph - N/A   Clear
6:53 PM 80.6 °F 82.7 °F 66.2 °F 61% 29.89 in 10.0 mi South 3.5 mph - N/A   Clear
7:14 PM 78.8 °F - 66.2 °F 65% 29.88 in 10.0 mi Calm Calm - N/A   Clear
7:33 PM 77.0 °F - 66.2 °F 69% 29.88 in 10.0 mi Calm Calm - N/A   Clear
7:54 PM 73.4 °F - 66.2 °F 78% 29.87 in 10.0 mi SSE 5.8 mph - N/A   Clear
8:14 PM 71.6 °F - 66.2 °F 83% 29.87 in 10.0 mi SSE 5.8 mph - N/A   Clear
8:33 PM 71.6 °F - 66.2 °F 83% 29.86 in 10.0 mi SSE 6.9 mph - N/A   Clear
8:54 PM 69.8 °F - 66.2 °F 88% 29.86 in 10.0 mi SSE 5.8 mph - N/A   Clear
9:14 PM 69.8 °F - 66.2 °F 88% 29.86 in 10.0 mi South 5.8 mph - N/A   Clear
9:33 PM 71.6 °F - 66.2 °F 83% 29.85 in 10.0 mi South 4.6 mph - N/A   Clear
9:54 PM 69.8 °F - 66.2 °F 88% 29.86 in 10.0 mi South 3.5 mph - N/A   Clear
10:14 PM 69.8 °F - 66.2 °F 88% 29.85 in 10.0 mi South 5.8 mph - N/A   Clear
10:33 PM 69.8 °F - 64.4 °F 83% 29.84 in 10.0 mi South 5.8 mph - N/A   Clear
10:54 PM 69.8 °F - 66.2 °F 88% 29.82 in 10.0 mi South 8.1 mph - N/A   Clear
11:14 PM 69.8 °F - 66.2 °F 88% 29.81 in 10.0 mi South 6.9 mph - N/A   Clear
11:33 PM 71.6 °F - 66.2 °F 83% 29.82 in 10.0 mi South 6.9 mph - N/A   Clear
11:54 PM 69.8 °F - 66.2 °F 88% 29.80 in 10.0 mi South 5.8 mph - N/A   Clear